Le nostre stazioni meteo in Italia

Pubblicità
Il mio iltempo24.it
Olbia/Costa Smeralda, Italia (16531): Temperatura & dewpoint: 15.08.2019 14:00:00 - 21.08.2019 14:00:00 (CEST)Olbia/Costa Smeralda, Italia (16531): velocità del vento: 15.08.2019 14:00:00 - 21.08.2019 14:00:00 (CEST)Olbia/Costa Smeralda, Italia (16531): direzione del vento: 15.08.2019 14:00:00 - 21.08.2019 14:00:00 (CEST)Olbia/Costa Smeralda, Italia (16531): reduced air pressure: 15.08.2019 14:00:00 - 21.08.2019 14:00:00 (CEST)Olbia/Costa Smeralda, Italia (16531): visibility: 15.08.2019 14:00:00 - 21.08.2019 14:00:00 (CEST)Olbia/Costa Smeralda, Italia (16531): precipitazioni: 15.08.2019 14:00:00 - 21.08.2019 14:00:00 (CEST)
Data & Tempo tt [°C] td [°C] ff [km/h] ff [kn] dd ppp [hPa] vv [km] rr [mm]
21.08.2019 14:00:00 32,0 18,9 18 10 ENE 1016,9 10 -
21.08.2019 13:00:00 32,0 19,0 18 10 ENE - 10 -
21.08.2019 12:00:00 32,0 18,0 15 8 ENE - 10 -
21.08.2019 11:00:00 31,4 16,0 9 5 NNE 1017,7 10 0,0
21.08.2019 10:00:00 29,0 16,0 5 3 - - 10 -
21.08.2019 09:00:00 27,0 17,0 8 4 SO - 10 -
21.08.2019 08:00:00 21,0 18,0 5 3 SSE - 10 -
21.08.2019 07:00:00 20,0 17,0 4 2 - - 10 -
21.08.2019 06:00:00 19,0 18,0 4 2 - - 10 -
21.08.2019 05:00:00 21,0 19,0 4 2 - - 10 -
21.08.2019 04:00:00 21,0 19,0 5 3 OSO - 10 -
21.08.2019 03:00:00 21,0 20,0 8 4 S - 10 -
21.08.2019 02:00:00 22,0 21,0 2 1 - - 10 -
21.08.2019 01:00:00 22,0 21,0 5 3 O - 10 -
21.08.2019 00:00:00 24,0 22,0 5 3 O - 10 -
20.08.2019 23:00:00 24,4 22,1 4 2 - 1017,1 10 0,0
20.08.2019 22:00:00 26,0 23,0 5 3 ENE - 10 -
20.08.2019 21:00:00 27,0 23,0 4 2 - - 10 -
20.08.2019 20:00:00 28,0 22,9 11 6 E 1016,1 10 -
20.08.2019 19:00:00 30,0 23,0 16 9 E - 10 -
20.08.2019 18:00:00 31,0 22,0 16 9 ESE - 10 -
20.08.2019 17:00:00 33,0 21,0 18 10 ESE - 10 -
20.08.2019 16:00:00 33,0 19,0 21 11 E - 10 -
20.08.2019 15:00:00 33,0 19,0 24 13 ENE - 10 -
20.08.2019 14:00:00 33,3 17,9 22 12 E 1015,9 10 -
20.08.2019 13:00:00 33,0 20,0 21 11 E - 10 -
20.08.2019 12:00:00 32,0 19,0 15 8 E - 10 -
20.08.2019 11:00:00 30,3 19,5 5 3 - 1016,8 10 0,0
20.08.2019 10:00:00 27,0 20,0 5 3 NNO - 10 -
20.08.2019 09:00:00 24,0 21,0 8 4 OSO - 10 -
20.08.2019 08:00:00 19,6 18,3 2 1 - 1016,7 10 -
20.08.2019 07:00:00 17,0 17,0 0 0 N - 10 -
20.08.2019 06:00:00 18,0 17,0 2 1 - - 10 -
20.08.2019 05:00:00 18,0 17,0 4 2 - - 10 -
20.08.2019 04:00:00 19,0 18,0 2 1 - - 10 -
20.08.2019 03:00:00 20,0 18,0 9 5 SO - 10 -
20.08.2019 02:00:00 21,0 19,0 2 1 - - 10 -
20.08.2019 01:00:00 22,0 21,0 4 2 - - 10 -
20.08.2019 00:00:00 22,0 20,0 2 1 - - 10 -
19.08.2019 23:00:00 23,0 20,0 5 3 SO - 10 -
19.08.2019 22:00:00 24,0 21,0 2 1 - - 10 -
19.08.2019 21:00:00 26,0 22,0 4 2 E - 10 -
19.08.2019 20:00:00 28,0 21,5 13 7 E 1016,0 10 -
19.08.2019 19:00:00 30,0 19,0 16 9 E - 10 -
19.08.2019 18:00:00 31,0 18,0 16 9 E - 10 -
19.08.2019 17:00:00 31,0 19,0 21 11 E - 10 -
19.08.2019 16:00:00 32,0 19,0 21 11 E - 10 -
19.08.2019 15:00:00 32,0 20,0 22 12 E - 10 -
19.08.2019 14:00:00 32,0 18,3 18 10 E 1016,4 10 -
19.08.2019 13:00:00 32,0 19,0 18 10 E - 10 -
19.08.2019 12:00:00 32,0 20,0 16 9 E - 10 -
19.08.2019 11:00:00 29,0 20,0 8 4 - - 10 -
19.08.2019 10:00:00 27,0 19,0 4 2 - - 10 -
19.08.2019 09:00:00 23,0 19,0 4 2 - - 10 -
19.08.2019 08:00:00 19,7 15,5 2 1 - 1015,9 10 -
19.08.2019 07:00:00 17,0 15,0 4 2 - - 10 -
19.08.2019 06:00:00 18,0 16,0 5 3 SSO - 10 -
19.08.2019 05:00:00 17,4 16,0 4 2 - 1015,5 10 0,0
19.08.2019 04:00:00 18,0 16,0 4 2 - - 10 -
19.08.2019 03:00:00 19,0 18,0 5 3 OSO - 10 -
19.08.2019 02:00:00 19,0 17,6 4 2 - 1015,7 10 -
19.08.2019 01:00:00 20,0 19,0 5 3 SO - 10 -
19.08.2019 00:00:00 22,0 20,0 4 2 - - 10 -
18.08.2019 23:00:00 21,9 19,1 2 1 - 1015,7 10 0,0
18.08.2019 22:00:00 24,0 20,0 2 1 - - 10 -
18.08.2019 21:00:00 26,0 21,0 5 3 E - 10 -
18.08.2019 20:00:00 27,5 20,9 13 7 E 1014,4 10 -
18.08.2019 19:00:00 30,0 19,0 15 8 ESE - 10 -
18.08.2019 18:00:00 30,0 18,0 18 10 E - 10 -
18.08.2019 17:00:00 31,3 20,4 21 11 E 1014,8 10 0,0
18.08.2019 16:00:00 31,0 21,0 21 11 E - 10 -
18.08.2019 15:00:00 31,0 20,0 22 12 E - 10 -
18.08.2019 14:00:00 31,4 20,4 21 11 E 1015,6 10 -
18.08.2019 13:00:00 30,0 22,0 22 12 E - 10 -
18.08.2019 12:00:00 30,0 22,0 22 12 ENE - 10 -
18.08.2019 11:00:00 28,6 21,8 18 10 NE 1016,2 10 0,0
18.08.2019 10:00:00 27,0 20,0 2 1 - - 10 -
18.08.2019 09:00:00 24,0 18,0 2 1 - - 10 -
18.08.2019 08:00:00 18,8 17,1 2 1 - 1016,2 10 -
18.08.2019 07:00:00 16,0 15,0 2 1 - - 10 -
18.08.2019 06:00:00 17,0 16,0 2 1 - - 10 -
18.08.2019 05:00:00 17,4 16,2 4 2 SSO 1016,2 10 0,0
18.08.2019 04:00:00 18,0 16,0 5 3 SSO - 10 -
18.08.2019 03:00:00 18,0 16,0 2 1 - - 10 -
18.08.2019 02:00:00 18,9 16,9 4 2 - 1016,5 10 -
18.08.2019 01:00:00 21,0 18,0 2 1 - - 10 -
18.08.2019 00:00:00 21,0 18,0 2 1 - - 10 -
17.08.2019 23:00:00 22,8 19,0 8 4 OSO 1016,8 10 0,0
17.08.2019 22:00:00 24,0 21,0 4 2 NNE - 10 -
17.08.2019 21:00:00 26,0 21,0 5 3 E - 10 -
17.08.2019 20:00:00 26,8 19,6 11 6 E 1016,2 10 -
17.08.2019 19:00:00 28,0 18,0 11 6 ENE - 10 -
17.08.2019 18:00:00 29,0 18,0 13 7 E - 10 -
17.08.2019 17:00:00 29,3 18,1 13 7 ENE 1016,5 10 0,0
17.08.2019 16:00:00 30,0 19,0 16 9 ENE - 10 -
17.08.2019 15:00:00 30,0 18,0 18 10 ENE - 10 -
17.08.2019 14:00:00 29,4 18,1 18 10 ENE 1017,1 10 -
17.08.2019 13:00:00 29,0 18,0 18 10 ENE - 10 -
17.08.2019 12:00:00 29,0 17,0 9 5 N - 10 -
17.08.2019 11:00:00 28,1 17,4 9 5 NNO 1017,7 10 0,0
17.08.2019 10:00:00 26,0 16,0 16 9 SO - 10 -
17.08.2019 09:00:00 24,0 15,0 21 11 SO - 10 -
17.08.2019 08:00:00 21,3 15,0 15 8 SO 1017,5 10 -
17.08.2019 07:00:00 20,0 16,0 18 10 SO - 10 -
17.08.2019 06:00:00 20,0 16,0 18 10 SO - 10 -
17.08.2019 05:00:00 19,9 16,4 11 6 OSO 1016,8 10 0,0
17.08.2019 04:00:00 20,0 16,0 22 12 OSO - 10 -
17.08.2019 03:00:00 21,0 16,0 18 10 SO - 10 -
17.08.2019 02:00:00 22,0 16,7 24 13 OSO 1017,1 10 -
17.08.2019 01:00:00 23,0 17,0 18 10 O - 10 -
17.08.2019 00:00:00 23,0 17,0 18 10 OSO - 10 -
16.08.2019 23:00:00 23,9 17,4 22 12 OSO 1016,8 10 0,0
16.08.2019 22:00:00 25,0 18,0 5 3 SE - 10 -
16.08.2019 21:00:00 26,0 17,0 5 3 NNE - 10 -
16.08.2019 20:00:00 27,9 15,3 4 2 - 1014,9 10 -
16.08.2019 19:00:00 30,0 16,0 15 8 E - 10 -
16.08.2019 18:00:00 30,0 17,0 18 10 E - 10 -
16.08.2019 17:00:00 29,8 18,0 22 12 E 1014,4 10 0,0
16.08.2019 16:00:00 31,0 16,0 26 14 ENE - 10 -
16.08.2019 15:00:00 32,0 16,0 24 13 ENE - 10 -
16.08.2019 14:00:00 31,6 17,6 24 13 ENE 1014,7 10 -
16.08.2019 13:00:00 31,0 12,0 9 5 - - 10 -
16.08.2019 12:00:00 31,0 13,0 16 9 ONO - 10 -
16.08.2019 11:00:00 29,6 13,4 16 9 O 1015,9 10 0,0
16.08.2019 10:00:00 28,0 17,0 26 14 SO - 10 -
16.08.2019 09:00:00 26,0 18,0 31 17 OSO - 10 -
16.08.2019 08:00:00 24,0 17,9 22 12 OSO 1015,4 10 -
16.08.2019 07:00:00 23,0 18,0 24 13 OSO - 10 -
16.08.2019 06:00:00 23,0 18,0 22 12 OSO - 10 -
16.08.2019 05:00:00 22,9 17,4 21 11 OSO 1014,9 10 0,0
16.08.2019 04:00:00 23,0 17,0 22 12 OSO - 10 -
16.08.2019 03:00:00 23,0 17,0 22 12 OSO - 10 -
16.08.2019 02:00:00 23,6 17,0 16 9 OSO 1015,7 10 -
16.08.2019 01:00:00 24,0 17,0 31 17 OSO - 10 -
16.08.2019 00:00:00 24,0 17,0 15 8 SO - 10 -
15.08.2019 23:00:00 24,2 16,3 15 8 OSO 1016,4 10 0,0
15.08.2019 22:00:00 26,0 13,0 11 6 ONO - 10 -
15.08.2019 21:00:00 28,0 11,0 13 7 O - 10 -
15.08.2019 20:00:00 28,6 11,1 18 10 OSO 1015,2 10 -
15.08.2019 19:00:00 30,0 11,0 28 15 O - 10 -
15.08.2019 18:00:00 31,0 11,0 29 16 ONO - 10 -
15.08.2019 17:00:00 32,8 9,6 29 16 O 1014,6 10 0,0
15.08.2019 16:00:00 31,0 15,0 18 10 E - 10 -
15.08.2019 15:00:00 30,0 17,0 22 12 ENE - 10 -
15.08.2019 14:00:00 29,9 17,6 22 12 E 1015,1 10 -

tt = Temperatura
td = dewpoint
ff = velocità del vento
dd = direzione del vento
ppp = reduced air pressure
vv = visibility
rr = precipitazioni

Stazioni seguenti

WeatherPro
AMSI
MeteoEarth